ABI146 VVPC-ZJQH

Flight info

Callsign ABI146
Flight time N/A
Altitude 21000
Route KUMUN1B KUMUN W2 DAN A1 BUNTA/K0607S0660 G221 SAGSU/K0609S0690 G221 GULUN
Aircraft DH8D/M-SDE2E3FGRY/H

Departure

Time N/A
Airport Phu Cat Airport (VVPC)

Arrival

Time 2026-05-03 21:18
Airport Qionghai Bo'ao Airport (ZJQH)
Time Latitude Longitude Altitude Speed Heading
2026-05-03 20:15 14.99649 108.80199 19595 ft 313 kts 347°
2026-05-03 20:15 15.01778 108.79702 19752 ft 314 kts 346°
2026-05-03 20:15 15.03913 108.79203 19933 ft 312 kts 346°
2026-05-03 20:15 15.06056 108.78702 20003 ft 315 kts 346°
2026-05-03 20:16 15.08204 108.78200 20140 ft 314 kts 346°
2026-05-03 20:16 15.10351 108.77698 20244 ft 316 kts 346°
2026-05-03 20:16 15.12509 108.77193 20353 ft 317 kts 346°
2026-05-03 20:16 15.14642 108.76695 20462 ft 317 kts 346°
2026-05-03 20:17 15.16816 108.76186 20572 ft 318 kts 346°
2026-05-03 20:17 15.18986 108.75678 20675 ft 319 kts 346°
2026-05-03 20:17 15.21131 108.75176 20795 ft 318 kts 346°
2026-05-03 20:17 15.23308 108.74667 20881 ft 319 kts 346°
2026-05-03 20:18 15.25474 108.74159 20908 ft 322 kts 346°
2026-05-03 20:18 15.27693 108.73640 20913 ft 326 kts 346°
2026-05-03 20:18 15.29937 108.73114 20910 ft 329 kts 346°
2026-05-03 20:18 15.32161 108.72593 20912 ft 332 kts 346°
2026-05-03 20:19 15.34449 108.72056 20912 ft 334 kts 346°
2026-05-03 20:19 15.36704 108.71528 20913 ft 336 kts 346°
2026-05-03 20:19 15.39011 108.70987 20912 ft 338 kts 346°
2026-05-03 20:19 15.41278 108.70287 20887 ft 337 kts 332°
2026-05-03 20:20 15.43205 108.68964 20925 ft 335 kts 321°
2026-05-03 20:20 15.45079 108.67485 20920 ft 336 kts 321°
2026-05-03 20:20 15.46946 108.66004 20917 ft 337 kts 321°
2026-05-03 20:20 15.48796 108.64538 20917 ft 338 kts 321°
2026-05-03 20:21 15.50771 108.63191 20890 ft 341 kts 335°
2026-05-03 20:21 15.53103 108.62775 20905 ft 342 kts
2026-05-03 20:21 15.55370 108.63435 20931 ft 341 kts 23°
2026-05-03 20:21 15.57542 108.64487 20920 ft 343 kts 26°
2026-05-03 20:22 15.59688 108.65604 20915 ft 344 kts 27°
2026-05-03 20:22 15.61823 108.66763 20910 ft 345 kts 28°
2026-05-03 20:22 15.63948 108.67947 20911 ft 346 kts 28°
2026-05-03 20:22 15.66049 108.69141 20904 ft 347 kts 29°
2026-05-03 20:23 15.68165 108.70359 20910 ft 347 kts 29°
2026-05-03 20:23 15.70277 108.71587 20909 ft 348 kts 29°
2026-05-03 20:23 15.72396 108.72829 20910 ft 349 kts 30°
2026-05-03 20:23 15.74510 108.74075 20901 ft 349 kts 30°
2026-05-03 20:24 15.76611 108.75319 20904 ft 349 kts 30°
2026-05-03 20:24 15.78731 108.76577 20905 ft 350 kts 30°
2026-05-03 20:24 15.80850 108.77837 20899 ft 350 kts 30°
2026-05-03 20:24 15.82981 108.79108 20893 ft 351 kts 30°
2026-05-03 20:25 15.85076 108.80358 20893 ft 351 kts 30°
2026-05-03 20:25 15.87219 108.81638 20893 ft 351 kts 30°
2026-05-03 20:25 15.89336 108.82904 20894 ft 351 kts 30°
2026-05-03 20:25 15.91434 108.84160 20896 ft 351 kts 30°
2026-05-03 20:26 15.93554 108.85429 20897 ft 351 kts 30°
2026-05-03 20:26 15.95696 108.86713 20901 ft 351 kts 30°
2026-05-03 20:26 15.97817 108.87984 20904 ft 351 kts 30°
2026-05-03 20:26 15.99938 108.89256 20906 ft 351 kts 30°
2026-05-03 20:27 16.02040 108.90516 20904 ft 352 kts 30°
2026-05-03 20:27 16.04173 108.91796 20904 ft 352 kts 30°
2026-05-03 20:27 16.06304 108.93075 20907 ft 352 kts 30°
2026-05-03 20:27 16.08431 108.94352 20904 ft 352 kts 30°
2026-05-03 20:28 16.10541 108.95618 20898 ft 353 kts 30°
2026-05-03 20:28 16.12786 108.96636 20878 ft 351 kts 13°
2026-05-03 20:28 16.15186 108.97070 20891 ft 350 kts
2026-05-03 20:28 16.17607 108.97433 20892 ft 350 kts
2026-05-03 20:29 16.20033 108.97787 20893 ft 349 kts
2026-05-03 20:29 16.22447 108.98136 20893 ft 349 kts
2026-05-03 20:29 16.24866 108.98484 20889 ft 349 kts
2026-05-03 20:29 16.27259 108.98826 20889 ft 349 kts
2026-05-03 20:30 16.29672 108.99171 20893 ft 349 kts
2026-05-03 20:30 16.32095 108.99516 20894 ft 349 kts
2026-05-03 20:30 16.34521 108.99861 20894 ft 349 kts
2026-05-03 20:30 16.36948 109.00207 20892 ft 349 kts
2026-05-03 20:31 16.39339 109.00546 20897 ft 349 kts
2026-05-03 20:31 16.41760 109.00890 20894 ft 349 kts
2026-05-03 20:31 16.44184 109.01234 20898 ft 349 kts
2026-05-03 20:31 16.46605 109.01578 20895 ft 350 kts
2026-05-03 20:32 16.49020 109.01922 20895 ft 350 kts
2026-05-03 20:32 16.51426 109.02264 20896 ft 350 kts
2026-05-03 20:32 16.53835 109.02605 20894 ft 350 kts
2026-05-03 20:32 16.56265 109.02951 20896 ft 350 kts
2026-05-03 20:33 16.58695 109.03296 20898 ft 350 kts
2026-05-03 20:33 16.61121 109.03641 20898 ft 350 kts
2026-05-03 20:33 16.63512 109.03981 20894 ft 350 kts
2026-05-03 20:33 16.65938 109.04326 20897 ft 350 kts
2026-05-03 20:34 16.68358 109.04670 20897 ft 350 kts
2026-05-03 20:34 16.70782 109.05015 20900 ft 350 kts
2026-05-03 20:34 16.73206 109.05360 20901 ft 350 kts
2026-05-03 20:34 16.75623 109.05704 20896 ft 350 kts
2026-05-03 20:35 16.78048 109.06049 20894 ft 351 kts
2026-05-03 20:35 16.80481 109.06396 20891 ft 351 kts
2026-05-03 20:35 16.82915 109.06742 20891 ft 351 kts
2026-05-03 20:35 16.85347 109.07089 20890 ft 351 kts
2026-05-03 20:36 16.87753 109.07432 20888 ft 351 kts
2026-05-03 20:36 16.90194 109.07780 20886 ft 351 kts
2026-05-03 20:36 16.92631 109.08127 20883 ft 351 kts
2026-05-03 20:36 16.95060 109.08473 20888 ft 351 kts
2026-05-03 20:37 16.97491 109.08820 20884 ft 351 kts
2026-05-03 20:37 16.99916 109.09166 20886 ft 351 kts
2026-05-03 20:37 17.02318 109.09509 20886 ft 351 kts
2026-05-03 20:37 17.04752 109.09856 20885 ft 351 kts
2026-05-03 20:38 17.07175 109.10203 20887 ft 351 kts
2026-05-03 20:38 17.09586 109.10547 20889 ft 351 kts
2026-05-03 20:38 17.12026 109.10895 20888 ft 351 kts
2026-05-03 20:38 17.14468 109.11245 20888 ft 351 kts
2026-05-03 20:39 17.16875 109.11589 20888 ft 351 kts
2026-05-03 20:39 17.19309 109.11937 20893 ft 351 kts
2026-05-03 20:39 17.21748 109.12286 20892 ft 351 kts
2026-05-03 20:39 17.24169 109.12633 20890 ft 351 kts
2026-05-03 20:40 17.26568 109.12975 20890 ft 351 kts
2026-05-03 20:40 17.28989 109.13322 20893 ft 351 kts
2026-05-03 20:40 17.31423 109.13671 20893 ft 351 kts
2026-05-03 20:40 17.33856 109.14019 20896 ft 351 kts
2026-05-03 20:41 17.36280 109.14366 20898 ft 351 kts
2026-05-03 20:41 17.38680 109.14710 20897 ft 351 kts
2026-05-03 20:41 17.41109 109.15059 20896 ft 351 kts
2026-05-03 20:41 17.43548 109.15408 20895 ft 351 kts
2026-05-03 20:42 17.45960 109.15754 20892 ft 351 kts
2026-05-03 20:42 17.48396 109.16103 20893 ft 351 kts
2026-05-03 20:42 17.50842 109.16379 20891 ft 349 kts
2026-05-03 20:42 17.53274 109.16427 20893 ft 349 kts 358°
2026-05-03 20:43 17.55687 109.16443 20893 ft 349 kts 358°
2026-05-03 20:43 17.58126 109.16460 20891 ft 349 kts 358°
2026-05-03 20:43 17.60560 109.16478 20888 ft 349 kts 358°
2026-05-03 20:43 17.63000 109.16498 20887 ft 349 kts 358°
2026-05-03 20:44 17.65438 109.16518 20889 ft 349 kts 358°
2026-05-03 20:44 17.67876 109.16541 20892 ft 348 kts 358°
2026-05-03 20:44 17.70304 109.16569 20898 ft 348 kts 358°
2026-05-03 20:44 17.72727 109.16600 20903 ft 348 kts 358°
2026-05-03 20:45 17.75157 109.16631 20905 ft 348 kts 358°
2026-05-03 20:45 17.77584 109.16663 20906 ft 348 kts 358°
2026-05-03 20:45 17.80014 109.16694 20908 ft 348 kts 358°
2026-05-03 20:45 17.82409 109.16725 20908 ft 348 kts 358°
2026-05-03 20:46 17.84839 109.16756 20908 ft 348 kts 358°
2026-05-03 20:46 17.87291 109.16788 20908 ft 348 kts 357°
2026-05-03 20:46 17.89700 109.16820 20907 ft 348 kts 357°
2026-05-03 20:46 17.92127 109.16851 20908 ft 348 kts 358°
2026-05-03 20:47 17.94569 109.16883 20907 ft 348 kts 358°
2026-05-03 20:47 17.96977 109.16914 20908 ft 348 kts 358°
2026-05-03 20:47 17.99414 109.16946 20909 ft 348 kts 358°
2026-05-03 20:47 18.01854 109.16978 20911 ft 348 kts 358°
2026-05-03 20:48 18.04261 109.17009 20909 ft 348 kts 358°
2026-05-03 20:48 18.06706 109.17041 20912 ft 348 kts 358°
2026-05-03 20:48 18.09143 109.17072 20915 ft 348 kts 357°
2026-05-03 20:48 18.11561 109.17104 20914 ft 348 kts 357°
2026-05-03 20:49 18.14007 109.17136 20913 ft 348 kts 357°
2026-05-03 20:49 18.16433 109.17168 20914 ft 349 kts 358°
2026-05-03 20:49 18.18842 109.17199 20916 ft 349 kts 357°
2026-05-03 20:49 18.21304 109.17231 20917 ft 349 kts 357°
2026-05-03 20:50 18.23725 109.17263 20918 ft 349 kts 357°
2026-05-03 20:50 18.26146 109.17294 20919 ft 349 kts 357°
2026-05-03 20:50 18.28595 109.17352 20918 ft 350 kts
2026-05-03 20:50 18.30947 109.18061 20913 ft 356 kts 27°
2026-05-03 20:51 18.32802 109.19743 20945 ft 358 kts 47°
2026-05-03 20:51 18.34424 109.21778 20933 ft 359 kts 49°
2026-05-03 20:51 18.36002 109.23805 20933 ft 360 kts 50°
2026-05-03 20:51 18.37581 109.25843 20934 ft 360 kts 50°
2026-05-03 20:52 18.39158 109.27879 20940 ft 361 kts 50°
2026-05-03 20:52 18.40760 109.29946 20943 ft 361 kts 50°
2026-05-03 20:52 18.42336 109.31980 20945 ft 362 kts 50°
2026-05-03 20:52 18.43938 109.34049 20946 ft 362 kts 50°
2026-05-03 20:53 18.45524 109.36097 20950 ft 362 kts 50°
2026-05-03 20:53 18.47105 109.38139 20953 ft 362 kts 50°
2026-05-03 20:53 18.48804 109.40098 20931 ft 360 kts 38°
2026-05-03 20:53 18.50971 109.41405 20979 ft 354 kts 22°
2026-05-03 20:54 18.53209 109.42477 20968 ft 355 kts 21°
2026-05-03 20:54 18.57734 109.44623 20964 ft 355 kts 21°
2026-05-03 20:54 18.59990 109.45694 20963 ft 356 kts 21°
2026-05-03 20:55 18.62272 109.46780 20967 ft 356 kts 21°
2026-05-03 20:55 18.64517 109.47849 20966 ft 357 kts 21°
2026-05-03 20:55 18.66800 109.48937 20966 ft 357 kts 21°
2026-05-03 20:55 18.69045 109.50008 20974 ft 357 kts 21°
2026-05-03 20:56 18.71333 109.51099 20963 ft 359 kts 21°
2026-05-03 20:56 18.73633 109.52196 20660 ft 369 kts 21°
2026-05-03 20:56 18.76025 109.53339 20269 ft 379 kts 21°
2026-05-03 20:56 18.78441 109.54494 19858 ft 388 kts 22°
2026-05-03 20:57 18.80939 109.55689 19426 ft 394 kts 22°
2026-05-03 20:57 18.83425 109.56879 18980 ft 389 kts 22°
2026-05-03 20:57 18.85852 109.58038 18551 ft 372 kts 21°
2026-05-03 20:57 18.88143 109.59132 18145 ft 357 kts 21°
2026-05-03 20:58 18.90383 109.60201 17759 ft 344 kts 21°
2026-05-03 20:58 18.92584 109.61256 17390 ft 345 kts 22°
2026-05-03 20:58 18.94754 109.62296 17015 ft 344 kts 21°
2026-05-03 20:58 18.96938 109.63343 16628 ft 343 kts 22°
2026-05-03 20:59 18.99123 109.64390 16243 ft 341 kts 22°
2026-05-03 20:59 19.01255 109.65411 15862 ft 336 kts 22°
2026-05-03 20:59 19.03392 109.66435 15480 ft 332 kts 22°
2026-05-03 20:59 19.05468 109.67431 15109 ft 326 kts 22°
2026-05-03 21:00 19.07516 109.68411 14738 ft 314 kts 22°
2026-05-03 21:00 19.08830 109.69041 14504 ft 310 kts 22°
2026-05-03 21:00 19.11441 109.70297 14049 ft 307 kts 22°
2026-05-03 21:00 19.13359 109.71220 13693 ft 305 kts 23°
2026-05-03 21:01 19.15130 109.72495 13156 ft 311 kts 49°
2026-05-03 21:01 19.16061 109.74505 12875 ft 303 kts 80°
2026-05-03 21:01 19.16215 109.76705 12583 ft 298 kts 90°
2026-05-03 21:01 19.16245 109.78886 12253 ft 296 kts 91°
2026-05-03 21:02 19.16260 109.81036 11929 ft 294 kts 91°
2026-05-03 21:02 19.16271 109.83211 11610 ft 292 kts 91°
2026-05-03 21:02 19.16279 109.85355 11291 ft 291 kts 91°
2026-05-03 21:02 19.16285 109.87468 10975 ft 289 kts 91°
2026-05-03 21:03 19.16290 109.89597 10650 ft 287 kts 91°
2026-05-03 21:03 19.16294 109.91692 10330 ft 286 kts 91°
2026-05-03 21:03 19.16297 109.93796 10017 ft 284 kts 91°
2026-05-03 21:03 19.16293 109.95869 9699 ft 282 kts 91°
2026-05-03 21:04 19.16281 109.97948 9385 ft 281 kts 91°
2026-05-03 21:04 19.16270 110.00015 9075 ft 279 kts 91°
2026-05-03 21:04 19.16260 110.02023 8764 ft 274 kts 91°
2026-05-03 21:04 19.16249 110.04032 8456 ft 271 kts 91°
2026-05-03 21:05 19.16238 110.06017 8151 ft 267 kts 91°
2026-05-03 21:05 19.16227 110.07968 7856 ft 263 kts 91°
2026-05-03 21:05 19.16216 110.09892 7563 ft 260 kts 91°
2026-05-03 21:05 19.16205 110.11767 7275 ft 257 kts 91°
2026-05-03 21:06 19.16194 110.13650 6989 ft 254 kts 91°
2026-05-03 21:06 19.16183 110.15513 6704 ft 250 kts 91°
2026-05-03 21:06 19.16173 110.17340 6419 ft 246 kts 91°
2026-05-03 21:06 19.16162 110.19130 6147 ft 241 kts 91°
2026-05-03 21:07 19.16152 110.20868 5880 ft 236 kts 91°
2026-05-03 21:07 19.15979 110.22555 5687 ft 225 kts 112°
2026-05-03 21:07 19.14978 110.23721 5603 ft 212 kts 156°
2026-05-03 21:07 19.13566 110.24013 5535 ft 204 kts 174°
2026-05-03 21:08 19.12179 110.24200 5444 ft 201 kts 170°
2026-05-03 21:08 19.10804 110.24505 5346 ft 197 kts 166°
2026-05-03 21:08 19.09485 110.24915 5255 ft 196 kts 161°
2026-05-03 21:08 19.08200 110.25428 5167 ft 198 kts 157°
2026-05-03 21:09 19.06934 110.26054 5077 ft 200 kts 152°
2026-05-03 21:09 19.05722 110.26778 4985 ft 201 kts 148°
2026-05-03 21:09 19.04558 110.27605 4888 ft 200 kts 143°
2026-05-03 21:09 19.03452 110.28518 4798 ft 204 kts 139°
2026-05-03 21:10 19.02389 110.29539 4703 ft 206 kts 135°
2026-05-03 21:10 19.01406 110.30636 4609 ft 207 kts 130°
2026-05-03 21:10 19.00485 110.31831 4510 ft 208 kts 126°
2026-05-03 21:10 18.99665 110.33076 4414 ft 208 kts 121°
2026-05-03 21:11 18.98918 110.34409 4314 ft 209 kts 117°
2026-05-03 21:11 18.98272 110.35792 4216 ft 211 kts 113°
2026-05-03 21:11 18.97726 110.37221 4119 ft 212 kts 109°
2026-05-03 21:11 18.97276 110.38716 4020 ft 214 kts 104°
2026-05-03 21:12 18.96933 110.40262 3920 ft 214 kts 100°
2026-05-03 21:12 18.96707 110.41806 3824 ft 215 kts 96°
2026-05-03 21:12 18.96592 110.43383 3723 ft 215 kts 91°
2026-05-03 21:12 18.96592 110.44967 3622 ft 214 kts 87°
2026-05-03 21:13 18.96707 110.46511 3521 ft 211 kts 83°
2026-05-03 21:13 18.96931 110.48047 3423 ft 210 kts 78°
2026-05-03 21:13 18.97255 110.49533 3329 ft 210 kts 74°
2026-05-03 21:13 18.97689 110.51005 3232 ft 210 kts 70°
2026-05-03 21:14 18.98230 110.52432 3126 ft 204 kts 64°
2026-05-03 21:14 18.99117 110.53529 2943 ft 192 kts 30°
2026-05-03 21:14 19.00360 110.53812 2648 ft 182 kts 352°
2026-05-03 21:14 19.01460 110.53247 2280 ft 175 kts 321°
2026-05-03 21:15 19.02337 110.52432 2065 ft 156 kts 320°
2026-05-03 21:15 19.03145 110.51721 1657 ft 155 kts 326°
2026-05-03 21:15 19.04044 110.51112 1234 ft 150 kts 334°
2026-05-03 21:15 19.04994 110.50678 977 ft 147 kts 340°
2026-05-03 21:16 19.05905 110.50203 849 ft 146 kts 331°
2026-05-03 21:16 19.06809 110.49636 714 ft 155 kts 330°
2026-05-03 21:16 19.07759 110.49065 535 ft 152 kts 332°
2026-05-03 21:16 19.08603 110.48584 372 ft 133 kts 334°
2026-05-03 21:17 19.09429 110.48121 274 ft 131 kts 333°
2026-05-03 21:17 19.09948 110.47799 334 ft 127 kts 331°
2026-05-03 21:17 19.10963 110.47169 376 ft 120 kts 335°
2026-05-03 21:17 19.11735 110.46748 260 ft 129 kts 332°
2026-05-03 21:18 19.12494 110.46265 102 ft 130 kts 328°
2026-05-03 21:18 19.13244 110.45809 30 ft 114 kts 330°
2026-05-03 21:18 19.13720 110.45531 40 ft 52 kts 331°
2026-05-03 21:18 19.13963 110.45388 41 ft 17 kts 339°
2026-05-03 21:19 19.14029 110.45426 42 ft 7 kts 54°
2026-05-03 21:19 19.14049 110.45456 42 ft 2 kts 56°
2026-05-03 21:19 19.14059 110.45472 42 ft 3 kts 56°
2026-05-03 21:19 19.14092 110.45494 41 ft 11 kts
2026-05-03 21:20 19.14156 110.45468 42 ft 8 kts 333°
2026-05-03 21:20 19.14197 110.45443 42 ft 7 kts 329°
2026-05-03 21:20 19.14235 110.45420 43 ft 4 kts 333°
2026-05-03 21:20 19.14259 110.45409 43 ft 2 kts 339°
2026-05-03 21:21 19.14300 110.45424 44 ft 6 kts 54°
2026-05-03 21:21 19.14320 110.45461 44 ft 4 kts 60°
2026-05-03 21:21 19.14323 110.45466 44 ft 0 kts 60°